Total_Precipitation_Accumulation
0.00 0.03 0.14 0.28 0.43 0.79 0.90 0.52 0.32 0.27 0.26 0.32 0.45 0.45 0.37 0.35 0.43 0.64 0.23 0.04 0.02 0.01 0.01 0.04 0.05 0.04 0.05 0.06 0.08 0.09 0.09 0.10 0.11 0.09 0.07 0.07 0.05 0.04 0.04 0.04 0.05 0.06 0.06 0.07 0.08 0.08 0.08 0.09 0.09
0.00 0.03 0.12 0.25 0.59 1.20 0.96 0.44 0.27 0.25 0.31 0.35 0.40 0.47 0.49 0.33 0.22 0.17 0.10 0.05 0.03 0.01 0.02 0.03 0.06 0.06 0.05 0.06 0.07 0.08 0.08 0.09 0.10 0.08 0.07 0.07 0.06 0.06 0.07 0.06 0.06 0.08 0.09 0.09 0.08 0.07 0.06 0.07 0.09
0.01 0.02 0.09 0.22 0.53 0.85 0.60 0.25 0.19 0.23 0.38 0.43 0.44 0.44 0.45 0.28 0.20 0.12 0.09 0.07 0.05 0.03 0.04 0.07 0.09 0.07 0.06 0.05 0.07 0.08 0.08 0.08 0.09 0.08 0.08 0.08 0.07 0.08 0.08 0.08 0.08 0.09 0.10 0.09 0.07 0.06 0.06 0.07 0.09
0.01 0.03 0.09 0.19 0.27 0.31 0.26 0.15 0.13 0.19 0.30 0.39 0.50 0.51 0.38 0.25 0.23 0.19 0.11 0.08 0.05 0.05 0.06 0.07 0.10 0.08 0.06 0.05 0.06 0.08 0.08 0.08 0.09 0.09 0.09 0.10 0.09 0.09 0.09 0.09 0.08 0.09 0.10 0.10 0.07 0.05 0.06 0.08 0.09
0.01 0.03 0.10 0.16 0.15 0.19 0.21 0.16 0.15 0.16 0.27 0.40 0.44 0.52 0.47 0.33 0.25 0.18 0.12 0.10 0.06 0.06 0.06 0.07 0.09 0.09 0.08 0.07 0.08 0.08 0.08 0.09 0.09 0.09 0.08 0.09 0.10 0.11 0.10 0.10 0.09 0.10 0.11 0.12 0.08 0.06 0.06 0.07 0.08
0.00 0.03 0.06 0.08 0.07 0.09 0.13 0.12 0.15 0.18 0.28 0.46 0.44 0.52 0.61 0.47 0.34 0.26 0.16 0.14 0.10 0.08 0.06 0.08 0.12 0.13 0.11 0.10 0.11 0.10 0.09 0.10 0.10 0.09 0.08 0.09 0.09 0.10 0.11 0.12 0.11 0.12 0.12 0.12 0.09 0.06 0.07 0.08 0.10
0.00 0.01 0.03 0.03 0.03 0.04 0.07 0.10 0.15 0.17 0.32 0.54 0.46 0.62 0.84 0.81 0.49 0.39 0.36 0.24 0.18 0.16 0.18 0.13 0.12 0.14 0.15 0.16 0.15 0.14 0.12 0.12 0.11 0.11 0.10 0.09 0.10 0.11 0.14 0.18 0.18 0.17 0.16 0.15 0.12 0.08 0.08 0.09 0.11
0.00 0.01 0.01 0.01 0.01 0.02 0.04 0.06 0.10 0.24 0.31 0.41 0.39 0.63 1.05 0.99 0.61 0.56 0.61 0.51 0.45 0.42 0.31 0.21 0.18 0.19 0.16 0.14 0.16 0.18 0.16 0.14 0.13 0.13 0.12 0.12 0.13 0.16 0.20 0.22 0.26 0.28 0.27 0.24 0.20 0.16 0.13 0.13 0.15
0.00 0.01 0.00 0.00 0.00 0.01 0.02 0.05 0.08 0.18 0.33 0.52 0.59 0.64 0.88 0.78 0.73 0.78 0.85 0.85 0.77 0.81 0.61 0.33 0.26 0.24 0.22 0.19 0.19 0.23 0.23 0.21 0.20 0.21 0.21 0.24 0.29 0.36 0.47 0.47 0.53 0.51 0.48 0.45 0.41 0.37 0.33 0.29 0.22
0.00 0.00 0.00 0.00 0.00 0.01 0.01 0.04 0.11 0.21 0.48 0.76 0.80 0.80 1.01 0.95 0.76 0.78 0.82 0.89 0.90 0.96 0.78 0.51 0.44 0.33 0.28 0.25 0.33 0.41 0.42 0.45 0.38 0.47 0.51 0.58 0.72 0.68 0.58 0.75 0.96 0.97 0.97 0.89 0.86 0.84 0.67 0.47 0.44
0.00 0.00 0.00 0.00 0.00 0.00 0.01 0.04 0.13 0.29 0.60 1.00 1.27 1.39 1.26 1.12 1.02 0.93 0.86 0.96 1.06 1.11 0.95 0.72 0.67 0.58 0.45 0.49 0.48 0.55 0.65 0.78 0.64 0.63 0.74 0.97 0.98 0.77 0.73 0.87 1.09 1.29 1.29 1.18 1.39 1.45 1.05 0.95 1.16
0.00 0.00 0.00 0.00 0.00 0.00 0.03 0.06 0.14 0.31 0.60 0.85 1.08 1.45 1.59 1.40 1.39 1.31 1.21 1.35 1.43 1.40 1.26 1.00 0.84 0.73 0.67 0.65 0.64 0.69 0.71 0.86 0.84 0.95 1.00 1.16 1.31 1.21 1.17 1.25 1.28 1.40 1.50 1.71 1.79 1.85 1.63 1.55 1.51
0.00 0.00 0.00 0.01 0.01 0.01 0.04 0.13 0.22 0.35 0.47 0.68 0.85 1.03 1.30 1.58 1.81 1.82 1.84 2.10 1.88 1.77 1.67 1.45 1.22 1.15 1.05 1.06 1.07 0.99 1.01 1.12 1.18 1.30 1.30 1.31 1.50 1.47 1.51 1.51 1.56 1.48 1.59 1.79 1.98 1.94 1.98 2.02 1.89
0.00 0.00 0.01 0.01 0.01 0.02 0.06 0.19 0.23 0.35 0.42 0.54 0.80 1.02 1.52 2.02 2.09 2.25 2.51 2.61 2.44 2.28 2.32 2.12 1.89 1.88 1.76 1.59 1.43 1.40 1.36 1.44 1.46 1.51 1.49 1.57 1.75 1.84 1.76 1.59 1.62 1.57 1.63 1.73 1.91 2.01 2.28 2.23 2.13
0.00 0.02 0.03 0.03 0.03 0.04 0.08 0.23 0.29 0.37 0.48 0.66 0.98 1.19 1.58 1.88 2.02 2.09 2.45 2.65 2.62 2.56 2.72 2.73 2.67 2.65 2.49 2.26 1.95 1.77 1.77 1.71 1.76 1.81 1.78 1.89 1.95 2.02 1.94 1.75 1.61 1.66 1.73 1.81 1.84 1.97 2.25 2.18 2.06
0.02 0.05 0.08 0.07 0.07 0.08 0.14 0.45 0.37 0.46 0.72 1.01 1.24 1.33 1.54 1.60 1.83 1.96 2.25 2.59 2.69 2.76 2.91 3.14 3.27 3.21 2.97 2.69 2.41 2.17 2.07 1.98 1.92 1.91 1.91 1.89 1.99 2.01 1.97 1.75 1.57 1.76 1.77 1.83 1.95 2.02 2.16 2.24 2.26
0.04 0.06 0.12 0.16 0.14 0.10 0.24 0.63 0.63 0.73 0.90 1.04 1.16 1.33 1.44 1.44 1.73 2.07 2.30 2.77 2.96 3.09 3.43 3.79 3.88 3.81 3.47 3.00 2.69 2.53 2.36 2.15 1.99 1.95 1.87 1.88 1.95 1.88 1.94 1.69 1.56 1.77 1.92 1.92 1.77 2.04 2.25 2.23 2.25
0.04 0.05 0.09 0.15 0.15 0.16 0.31 0.52 0.62 0.78 0.94 1.07 1.06 1.13 1.17 1.31 1.73 2.16 2.41 2.68 3.18 3.62 4.07 4.12 4.06 4.26 4.02 3.61 3.29 2.93 2.57 2.25 2.08 1.95 1.78 1.66 1.61 1.68 1.89 1.61 1.59 1.84 1.91 1.86 1.93 2.10 2.25 2.13 2.17
0.04 0.08 0.16 0.17 0.15 0.28 0.46 0.62 0.71 0.82 0.88 0.98 1.11 1.08 1.10 1.34 1.71 2.06 2.37 2.67 3.05 3.59 3.91 4.25 4.27 4.14 3.98 3.72 3.28 2.83 2.38 2.12 1.93 1.75 1.59 1.56 1.60 1.73 2.01 1.75 1.76 1.80 1.74 1.74 1.92 2.06 1.98 1.84 2.24
0.07 0.12 0.20 0.24 0.18 0.26 0.46 0.69 0.81 0.80 0.83 0.90 1.05 1.25 1.27 1.46 1.69 2.06 2.44 2.67 2.76 2.98 3.29 3.55 3.58 3.20 2.85 2.69 2.58 2.42 2.29 1.99 1.80 1.70 1.70 1.62 1.66 1.70 1.80 1.82 1.74 1.73 1.71 1.56 1.64 1.88 1.77 1.47 1.90
0.10 0.10 0.11 0.16 0.19 0.30 0.49 0.84 0.94 0.78 0.75 0.83 0.97 1.25 1.44 1.44 1.61 1.89 2.28 2.41 2.44 2.50 2.57 2.59 2.49 2.30 2.18 2.18 2.23 2.28 2.28 2.05 1.99 1.98 1.95 1.75 1.71 1.72 1.80 1.70 1.55 1.51 1.50 1.38 1.39 1.59 1.66 1.45 1.48
0.13 0.08 0.05 0.08 0.21 0.46 0.58 1.00 1.07 0.86 0.81 0.85 0.93 1.04 1.13 1.19 1.24 1.36 1.61 1.93 1.85 1.87 2.02 2.22 2.14 2.00 2.04 2.21 2.23 2.26 2.28 2.30 2.39 2.51 2.42 2.23 2.01 1.88 1.77 1.58 1.41 1.25 1.21 1.17 1.13 1.29 1.42 1.43 1.21
0.07 0.05 0.06 0.09 0.19 0.38 0.47 0.74 0.96 0.99 0.87 0.78 0.80 0.88 0.90 0.93 0.95 0.96 1.12 1.51 1.61 1.50 1.63 1.86 2.05 2.16 2.26 2.39 2.45 2.54 2.54 2.52 2.45 2.44 2.32 2.15 2.00 1.84 1.64 1.50 1.37 1.26 1.15 1.08 1.05 1.10 1.13 1.16 1.07
0.05 0.07 0.15 0.22 0.39 0.74 0.59 0.61 0.96 0.97 0.80 0.68 0.57 0.60 0.64 0.66 0.67 0.71 0.86 1.29 1.61 1.61 1.62 1.70 1.87 2.12 2.27 2.31 2.31 2.31 2.25 2.17 2.03 1.89 1.74 1.58 1.48 1.41 1.33 1.21 1.12 1.07 1.07 1.07 1.04 1.00 1.01 1.02 1.04
0.06 0.16 0.51 0.81 1.07 1.12 0.58 0.58 0.85 0.73 0.67 0.59 0.63 0.64 0.48 0.43 0.50 0.50 0.51 0.63 0.78 0.93 1.01 1.09 1.21 1.42 1.57 1.66 1.67 1.60 1.61 1.52 1.39 1.27 1.14 1.00 0.89 0.83 0.79 0.80 0.81 0.81 0.82 0.82 0.84 0.82 0.82 0.91 0.98
0.07 0.10 0.32 0.50 0.64 0.77 0.67 0.94 0.89 0.59 0.47 0.47 0.52 0.46 0.30 0.26 0.28 0.27 0.25 0.27 0.44 0.63 0.81 0.90 0.93 0.95 0.99 1.04 1.05 0.99 0.97 0.96 0.90 0.90 0.81 0.71 0.65 0.60 0.60 0.62 0.63 0.63 0.65 0.67 0.71 0.69 0.69 0.71 0.77
0.06 0.06 0.09 0.15 0.25 0.50 0.72 1.03 0.92 0.52 0.45 0.44 0.33 0.22 0.16 0.12 0.11 0.11 0.11 0.13 0.23 0.42 0.60 0.66 0.73 0.77 0.82 0.87 0.80 0.71 0.63 0.62 0.64 0.65 0.62 0.59 0.62 0.56 0.57 0.59 0.62 0.64 0.67 0.68 0.67 0.65 0.66 0.74 0.79
0.07 0.07 0.08 0.12 0.24 0.42 0.66 0.93 0.98 0.60 0.52 0.44 0.30 0.22 0.13 0.07 0.05 0.04 0.05 0.07 0.11 0.19 0.34 0.49 0.59 0.68 0.75 0.81 0.72 0.61 0.55 0.51 0.52 0.56 0.57 0.58 0.58 0.58 0.58 0.57 0.62 0.65 0.64 0.62 0.61 0.59 0.62 0.72 0.81
0.10 0.09 0.09 0.09 0.13 0.28 0.50 0.62 0.55 0.46 0.36 0.31 0.25 0.15 0.08 0.05 0.03 0.03 0.07 0.13 0.20 0.31 0.44 0.54 0.62 0.64 0.67 0.68 0.65 0.61 0.54 0.54 0.56 0.55 0.54 0.55 0.56 0.56 0.57 0.60 0.60 0.60 0.60 0.60 0.62 0.62 0.67 0.73 0.78
0.10 0.10 0.11 0.13 0.12 0.15 0.26 0.39 0.28 0.23 0.19 0.17 0.14 0.12 0.07 0.05 0.05 0.08 0.14 0.22 0.27 0.36 0.47 0.57 0.67 0.70 0.74 0.77 0.83 0.89 0.89 0.86 0.80 0.64 0.55 0.56 0.60 0.62 0.63 0.64 0.63 0.59 0.60 0.69 0.75 0.74 0.78 0.83 0.84